THORAD AGENA D DEB, 42532

Orbit data source: Space-Track

THORAD AGENA D DEB, 42532 is space debris in SSO originally from a launch on Wed, 08 Apr 1970 UTC launched from the Air Force Western Test Range (AFWTR). Debris objects in space refer to the collection of defunct objects orbiting the Earth. Examples of debris include non-operational satellites, rocket bodies, and fragments generated from explosions, collisions, or faulty payload assembly.

Loading next visibility...
THORAD AGENA D DEB details
Identifier
42532, 1970-025SN
Orbit
SSO
Last TLE update16 hours ago
Origin
Flag of USNASA LeRC (US)
ManufacturerUnknown
MissionSpacecraft
Bus & MotorUnknown
MassUnknown
Launch date (UTC)
1970-04-08 (55 years ago)
Launch vehicleUnknown
Launch site
Air Force Western Test Range (AFWTR)
Object type
Payload
Rocket body
Debris
Shape & HBRUnknown
Radar Cross SectionSmall (<0.1 m²)

Expand to show TLE details & history

TLE from 16 hours ago
0 THORAD AGENA D DEB
1 42532U 70025SN  24360.91930639  .00004367  00000-0  30026-2 0  9998
2 42532  99.9484 243.9565 0003982 330.1153  29.9780 13.99982490564276
Epoch: 2024-12-25T22:03Z
Definitive object data (Epoch: 2024-12-25T22:03:48.072Z)
Latitude-0.00004°
Longitude178.10006°
Altitude894.192 km
Speed7.406 km/s
True Right ascension16h 15m 49s
True Declination0° 00' 00"
Sunlit
Object was in daylight at TLE epoch
Visualization TLE readout
Latitude60.9181°
Longitude160.52916°
Altitude904.358 km
Speed7.406 km/s
Apparent Right ascension22h 14m 30s
Apparent Declination42° 24' 04"
Sunlit
Object is in daylight
Visualization observer readout
Local Sidereal Time13:09:33
Azimuth30.724° NE
Elevation1.354°
Doppler factor1
Orbital elements
Apogee altitude893.999 km
Perigee altitude888.209 km
Semi-major axis7,269.241 km
Eccentricity0.0003982
Inclination99.9484°
RAAN243.9565°
Arg. of periapsis330.1153°
True anomaly30.00081°
Mean anomaly29.978°
Eccentric anomaly29.9894°
Mean motion3.50195 °/min
BSTAR0.0030026
Orbital period102.8 mins
Loading maneuver chart data...

THORAD AGENA D DEB Visibility forecast

Observer location: undefined°, undefined

Span
Click to sort rows by Start time (UTC) header in descending order
Start Az.
Max El. time (UTC)
Max El. Az.
Max El.
End time (UTC)
End Az.
9 mins2024-12-26 15:20:49.459Z123.187° SE2024-12-26 15:25:49.459Z60.748° ENE26.606°2024-12-26 15:29:49.459Z9.583° NNE
9 mins2024-12-26 17:02:49.459Z199.421° SSW2024-12-26 17:06:49.459Z258.919° W31.672°2024-12-26 17:11:49.459Z326.951° NNW
9 mins2024-12-27 05:31:49.459Z12.483° NNE2024-12-27 05:35:49.459Z313.376° NW44.68°2024-12-27 05:40:49.459Z200.579° SSW
|